• In Portugal
  • List of Countries
  • For 7 days
  • Water Temperature
  • Satellite Maps
  • Weather Map
  • Weather Widgets
  • user-avatar
    Login

    Hourly Weather Shumovo

    Today, 21 September, Friday

    Time Temperature Precipitation Wind Pressure Humidity
    00:00 +16°C° 0 mm 2 mps 747 mmHg 89%
    01:00 +16°C° 0 mm 1 mps 748 mmHg 90%
    02:00 +15°C° 0 mm 1 mps 748 mmHg 91%
    03:00 +15°C° 0 mm 1 mps 748 mmHg 91%
    04:00 +15°C° 0 mm 1 mps 748 mmHg 92%
    05:00 +15°C° 0 mm 1 mps 748 mmHg 92%
    06:00 +16°C° 0 mm 1 mps 748 mmHg 87%
    07:00 +18°C° 0 mm 1 mps 749 mmHg 82%
    08:00 +20°C° 0 mm 1 mps 749 mmHg 76%
    09:00 +21°C° 0 mm 1 mps 749 mmHg 69%
    10:00 +23°C° 0 mm 2 mps 749 mmHg 63%
    11:00 +24°C° 0 mm 2 mps 749 mmHg 56%
    12:00 +25°C° 0 mm 2 mps 749 mmHg 53%
    13:00 +25°C° 0 mm 2 mps 749 mmHg 51%
    14:00 +26°C° 0 mm 1 mps 749 mmHg 48%
    15:00 +25°C° 0 mm 1 mps 749 mmHg 53%
    16:00 +24°C° 0 mm 1 mps 749 mmHg 57%
    17:00 +23°C° 0 mm 1 mps 748 mmHg 62%
    18:00 +22°C° 0 mm 1 mps 748 mmHg 65%
    19:00 +21°C° 0 mm 1 mps 748 mmHg 67%
    20:00 +20°C° 0 mm 1 mps 748 mmHg 70%
    21:00 +18°C° 0 mm 2 mps 748 mmHg 72%
    22:00 +18°C° 0 mm 2 mps 748 mmHg 73%
    23:00 +18°C° 0 mm 2 mps 748 mmHg 75%

    Tomorrow, 22 September, Saturday

    Time Temperature Precipitation Wind Pressure Humidity
    00:00 +18°C° 0 mm 2 mps 748 mmHg 76%
    01:00 +17°C° 0 mm 2 mps 748 mmHg 77%
    02:00 +17°C° 0 mm 2 mps 748 mmHg 78%
    03:00 +17°C° 0 mm 2 mps 748 mmHg 78%
    04:00 +16°C° 0 mm 2 mps 748 mmHg 78%
    05:00 +16°C° 0 mm 2 mps 748 mmHg 78%
    06:00 +17°C° 0 mm 3 mps 748 mmHg 74%
    07:00 +19°C° 0 mm 3 mps 747 mmHg 70%
    08:00 +20°C° 0 mm 4 mps 747 mmHg 66%
    09:00 +22°C° 0 mm 4 mps 747 mmHg 62%
    10:00 +23°C° 0 mm 5 mps 747 mmHg 57%
    11:00 +26°C° 0 mm 5 mps 747 mmHg 53%
    12:00 +26°C° 0 mm 5 mps 746 mmHg 52%
    13:00 +27°C° 0 mm 6 mps 746 mmHg 50%
    14:00 +27°C° 0 mm 6 mps 746 mmHg 49%
    15:00 +26°C° 0 mm 5 mps 745 mmHg 53%
    16:00 +25°C° 0 mm 4 mps 745 mmHg 58%
    17:00 +23°C° 0 mm 4 mps 744 mmHg 62%
    18:00 +22°C° 0 mm 4 mps 744 mmHg 61%
    19:00 +22°C° 0 mm 5 mps 743 mmHg 59%
    20:00 +21°C° 0 mm 5 mps 743 mmHg 57%
    21:00 +21°C° 0 mm 5 mps 743 mmHg 56%
    22:00 +21°C° 0 mm 5 mps 742 mmHg 56%
    23:00 +20°C° 0 mm 5 mps 742 mmHg 55%

    Day after tomorrow, 23 September, Sunday

    Time Temperature Precipitation Wind Pressure Humidity
    00:00 +19°C° 0 mm 5 mps 742 mmHg 57%
    01:00 +19°C° 0 mm 5 mps 742 mmHg 59%
    02:00 +18°C° 0 mm 4 mps 742 mmHg 62%
    03:00 +16°C° 0.3 mm 5 mps 741 mmHg 68%
    04:00 +15°C° 0.3 mm 5 mps 741 mmHg 74%
    05:00 +13°C° 0.3 mm 5 mps 741 mmHg 80%
    06:00 +12°C° 0.7 mm 5 mps 741 mmHg 83%
    07:00 +10°C° 0.7 mm 6 mps 741 mmHg 85%
    08:00 +9°C° 0.7 mm 6 mps 742 mmHg 88%
    09:00 +9°C° 0.6 mm 5 mps 742 mmHg 86%
    10:00 +9°C° 0.6 mm 5 mps 742 mmHg 84%
    11:00 +10°C° 0.6 mm 4 mps 743 mmHg 82%
    12:00 +11°C° 0 mm 4 mps 743 mmHg 81%
    13:00 +11°C° 0 mm 4 mps 743 mmHg 79%
    14:00 +12°C° 0 mm 4 mps 743 mmHg 78%
    15:00 +12°C° 0 mm 3 mps 743 mmHg 78%
    16:00 +12°C° 0 mm 3 mps 743 mmHg 78%
    17:00 +12°C° 0 mm 3 mps 743 mmHg 78%
    18:00 +11°C° 0 mm 3 mps 743 mmHg 82%
    19:00 +10°C° 0 mm 2 mps 743 mmHg 85%
    20:00 +9°C° 0 mm 2 mps 743 mmHg 88%
    21:00 +9°C° 0 mm 2 mps 743 mmHg 89%
    22:00 +9°C° 0 mm 3 mps 743 mmHg 89%
    23:00 +8°C° 0 mm 3 mps 743 mmHg 90%

    24 September, Monday

    Time Temperature Precipitation Wind Pressure Humidity
    00:00 +8°C° 0 mm 3 mps 743 mmHg 91%
    01:00 +8°C° 0 mm 3 mps 743 mmHg 91%
    02:00 +7°C° 0 mm 2 mps 743 mmHg 91%
    03:00 +7°C° 0 mm 2 mps 743 mmHg 91%
    04:00 +7°C° 0 mm 2 mps 743 mmHg 91%
    05:00 +7°C° 0 mm 2 mps 743 mmHg 91%
    06:00 +8°C° 0 mm 3 mps 743 mmHg 86%
    07:00 +9°C° 0 mm 3 mps 742 mmHg 80%
    08:00 +11°C° 0 mm 3 mps 742 mmHg 75%
    09:00 +11°C° 0.1 mm 4 mps 742 mmHg 72%
    10:00 +12°C° 0.1 mm 5 mps 741 mmHg 69%
    11:00 +13°C° 0.1 mm 6 mps 741 mmHg 66%
    12:00 +11°C° 0.8 mm 6 mps 740 mmHg 71%
    13:00 +11°C° 0.8 mm 6 mps 739 mmHg 76%
    14:00 +10°C° 0.8 mm 6 mps 738 mmHg 80%
    15:00 +10°C° 2.6 mm 8 mps 736 mmHg 82%
    16:00 +8°C° 2.6 mm 9 mps 735 mmHg 85%
    17:00 +8°C° 2.6 mm 11 mps 733 mmHg 87%
    18:00 +9°C° 1.2 mm 11 mps 732 mmHg 86%
    19:00 +9°C° 1.2 mm 11 mps 730 mmHg 85%
    20:00 +11°C° 1.2 mm 11 mps 729 mmHg 84%
    21:00 +9°C° 0.1 mm 11 mps 728 mmHg 83%
    22:00 +8°C° 0.1 mm 11 mps 727 mmHg 82%
    23:00 +7°C° 0.1 mm 11 mps 727 mmHg 81%

    25 September, Tuesday

    Time Temperature Precipitation Wind Pressure Humidity
    00:00 +7°C° 0.1 mm 11 mps 727 mmHg 80%
    01:00 +7°C° 0.1 mm 11 mps 727 mmHg 80%
    02:00 +7°C° 0.1 mm 11 mps 727 mmHg 80%
    03:00 +7°C° 0.1 mm 11 mps 727 mmHg 80%
    04:00 +6°C° 0.1 mm 11 mps 727 mmHg 80%
    05:00 +6°C° 0.1 mm 11 mps 727 mmHg 81%
    06:00 +6°C° 0.3 mm 11 mps 727 mmHg 82%
    07:00 +6°C° 0.3 mm 11 mps 727 mmHg 83%
    08:00 +6°C° 0.3 mm 10 mps 728 mmHg 84%
    09:00 +6°C° 0.9 mm 10 mps 729 mmHg 84%
    10:00 +6°C° 0.9 mm 10 mps 730 mmHg 85%
    11:00 +6°C° 0.9 mm 10 mps 731 mmHg 85%
    12:00 +6°C° 0.7 mm 10 mps 732 mmHg 84%
    13:00 +5°C° 0.7 mm 10 mps 734 mmHg 83%
    14:00 +5°C° 0.7 mm 10 mps 735 mmHg 82%
    15:00 +5°C° 0.2 mm 9 mps 736 mmHg 80%
    16:00 +5°C° 0.2 mm 9 mps 737 mmHg 78%
    17:00 +5°C° 0.2 mm 8 mps 738 mmHg 77%
    18:00 +5°C° 0 mm 7 mps 739 mmHg 77%
    19:00 +4°C° 0 mm 7 mps 739 mmHg 76%
    20:00 +4°C° 0 mm 6 mps 740 mmHg 76%
    21:00 +4°C° 0 mm 6 mps 740 mmHg 76%
    22:00 +3°C° 0 mm 6 mps 741 mmHg 77%
    23:00 +2°C° 0 mm 5 mps 741 mmHg 77%

    26 September, Wednesday

    Time Temperature Precipitation Wind Pressure Humidity
    00:00 +2°C° 0 mm 5 mps 742 mmHg 77%
    01:00 +2°C° 0 mm 5 mps 742 mmHg 77%
    02:00 +1°C° 0 mm 5 mps 743 mmHg 77%
    03:00 +1°C° 0 mm 5 mps 743 mmHg 80%
    04:00 +1°C° 0 mm 5 mps 743 mmHg 83%
    05:00 0°C° 0 mm 4 mps 744 mmHg 85%
    06:00 +1°C° 0.1 mm 4 mps 744 mmHg 84%
    07:00 +2°C° 0.1 mm 5 mps 744 mmHg 82%
    08:00 +3°C° 0.1 mm 5 mps 745 mmHg 81%
    09:00 +5°C° 0.3 mm 5 mps 745 mmHg 81%
    10:00 +5°C° 0.3 mm 5 mps 745 mmHg 81%
    11:00 +5°C° 0.3 mm 5 mps 746 mmHg 81%
    12:00 +6°C° 0.2 mm 5 mps 746 mmHg 81%
    13:00 +6°C° 0.2 mm 5 mps 746 mmHg 80%
    14:00 +6°C° 0.2 mm 5 mps 746 mmHg 80%
    15:00 +6°C° 0.1 mm 4 mps 747 mmHg 82%
    16:00 +6°C° 0.1 mm 4 mps 747 mmHg 85%
    17:00 +5°C° 0.1 mm 3 mps 748 mmHg 87%
    18:00 +5°C° 0 mm 3 mps 748 mmHg 89%
    19:00 +4°C° 0 mm 3 mps 749 mmHg 90%
    20:00 +3°C° 0 mm 3 mps 749 mmHg 92%
    21:00 +4°C° 0 mm 2 mps 750 mmHg 90%
    22:00 +3°C° 0 mm 2 mps 750 mmHg 87%
    23:00 +2°C° 0 mm 2 mps 751 mmHg 85%
    Show more